Location: Pine Mountain Observatory
(43.7910°N, 120.9377°W)
Time: 20:38:47
(UTC-07:00)

Vanguard 1 Rocket - Pass Details

Date: 29 May 2019
Orbit: 652 x 4224 km, 34.3° (Epoch: 24 June)

Event Time Altitude Azimuth Distance (km) Brightness Sun altitude
Exits shadow 03:49:00 20° 233° (SW) 1,890 8.4 -14.1°
Maximum altitude 03:52:17 35° 180° (S) 1,583 8.2 -13.7°
Drops below altitude 10° 04:00:00 10° 118° (ESE) 3,776 10.7 -12.8°
Sets 04:04:32 0° 111° (ESE) 5,357 11.6 -12.3°
